Weather History for Boothville, LA

Change the Weather History Date:

Monday, July 15, 2013

  Actual Average Record
Temperature  
Mean Temperature 80 °F -  
Max Temperature 86 °F - - ()
Min Temperature 75 °F - - ()
Cooling Degree Days 16    
Growing Degree Days 30 (Base 50)    
Moisture  
Dew Point 75 °F    
Average Humidity 80    
Maximum Humidity 94    
Minimum Humidity 67    
Precipitation  
Precipitation 0.14 in - - ()
Sea Level Pressure  
Sea Level Pressure 30.06 in    
Wind  
Wind Speed 7 mph (East)    
Max Wind Speed 14 mph    
Max Gust Speed 23 mph    
Visibility 10 miles    
Events Rain    
T = Trace of Precipitation, MM = Missing Value Source: NWS Daily Summary

Daily Weather History Graph

Daily Weather History Graph

Search for Another Location

Airport:

Trip Planner

Search our weather history database for the weather conditions in past years. The results will help you decide how hot, cold, wet, or windy it might be!

Date:

Astronomy

Jul. 15, 2013 Rise Set
Actual Time 6:08 AM CDT 7:58 PM CDT
Civil Twilight 5:41 AM CDT 8:25 PM CDT
Nautical Twilight 5:09 AM CDT 8:57 PM CDT
Astronomical Twilight 4:35 AM CDT 9:31 PM CDT
Moon 12:49 PM CDT (7/15) No Moon Set
Length of Visible Light 14h 43m
Length of Day
13h 50m
Waxing Crescent, 45% of the Moon is Illuminated
Jul 15
Waxing Crescent
Jul 15
First Quarter
Jul 22
Full
Jul 29
Last Quarter
Aug 6
New

Hourly Weather History & Observations

Time (CDT) Temp. Heat Index Dew Point Humidity Pressure Visibility Wind Dir Wind Speed Gust Speed Precip Events Conditions
12:51 AM 79.0 °F - 73.9 °F 84% 30.02 in 10.0 mi ESE 4.6 mph - N/A   Clear
1:51 AM 79.0 °F - 75.0 °F 88% 30.01 in 10.0 mi ESE 3.5 mph - N/A   Clear
2:51 AM 79.0 °F - 75.0 °F 88% 30.01 in 10.0 mi ESE 4.6 mph - N/A   Clear
3:51 AM 80.1 °F 85.1 °F 75.0 °F 85% 30.01 in 10.0 mi ESE 4.6 mph - N/A   Clear
4:51 AM 79.0 °F - 75.0 °F 88% 30.02 in 10.0 mi ESE 4.6 mph - N/A   Clear
5:51 AM 80.1 °F 85.1 °F 75.0 °F 85% 30.03 in 10.0 mi ESE 5.8 mph - N/A   Clear
6:51 AM 80.1 °F 85.1 °F 75.0 °F 85% 30.04 in 10.0 mi ESE 5.8 mph - N/A   Clear
7:51 AM 82.0 °F 88.6 °F 75.0 °F 79% 30.06 in 10.0 mi ESE 5.8 mph - N/A   Clear
8:51 AM 82.9 °F 90.2 °F 75.0 °F 77% 30.07 in 10.0 mi East 5.8 mph - N/A   Scattered Clouds
9:51 AM 84.0 °F 92.6 °F 75.9 °F 76% 30.08 in 10.0 mi East 11.5 mph - N/A   Mostly Cloudy
10:51 AM 84.9 °F 94.1 °F 75.9 °F 74% 30.09 in 10.0 mi East 8.1 mph - 0.00 in   Mostly Cloudy
11:01 AM 84.2 °F 90.9 °F 73.4 °F 70% 30.09 in 10.0 mi East 10.4 mph - N/A   Mostly Cloudy
11:10 AM 84.2 °F 90.9 °F 73.4 °F 70% 30.09 in 10.0 mi East 9.2 mph - N/A   Scattered Clouds
11:51 AM 84.0 °F 91.9 °F 75.0 °F 74% 30.09 in 10.0 mi East 11.5 mph - N/A   Mostly Cloudy
12:03 PM 86.0 °F 95.1 °F 75.2 °F 70% 30.08 in 10.0 mi East 11.5 mph - N/A   Mostly Cloudy
12:51 PM 84.0 °F 91.2 °F 73.9 °F 72% 30.09 in 10.0 mi East 13.8 mph - N/A   Scattered Clouds
1:51 PM 86.0 °F 93.8 °F 73.9 °F 67% 30.08 in 10.0 mi East 10.4 mph - N/A   Clear
2:24 PM 86.0 °F 95.1 °F 75.2 °F 70% 30.07 in 10.0 mi East 11.5 mph - N/A   Scattered Clouds
2:51 PM 84.9 °F 93.3 °F 75.0 °F 72% 30.06 in 10.0 mi East 11.5 mph - N/A   Scattered Clouds
3:51 PM 82.9 °F 90.2 °F 75.0 °F 77% 30.06 in 10.0 mi East 11.5 mph - N/A   Partly Cloudy
4:51 PM 84.0 °F 91.9 °F 75.0 °F 74% 30.06 in 10.0 mi East 10.4 mph - N/A   Partly Cloudy
5:51 PM 82.9 °F 90.8 °F 75.9 °F 79% 30.05 in 10.0 mi East 8.1 mph - N/A   Partly Cloudy
6:51 PM 82.0 °F 88.6 °F 75.0 °F 79% 30.06 in 10.0 mi ENE 10.4 mph - N/A   Partly Cloudy
7:35 PM 80.6 °F 86.2 °F 75.2 °F 84% 30.06 in 10.0 mi East 5.8 mph - 0.00 in   Mostly Cloudy
7:51 PM 77.0 °F - 75.0 °F 94% 30.08 in 10.0 mi SE 6.9 mph 23.0 mph 0.12 in Rain Light Rain
8:08 PM 75.2 °F - 73.4 °F 94% 30.07 in 10.0 mi ESE 4.6 mph - 0.02 in Rain Light Rain
8:51 PM 77.0 °F - 73.0 °F 88% 30.08 in 10.0 mi East 5.8 mph - 0.02 in   Mostly Cloudy
9:51 PM 80.1 °F 84.2 °F 73.0 °F 79% 30.10 in 10.0 mi East 8.1 mph - N/A   Mostly Cloudy
10:51 PM 77.0 °F - 73.9 °F 90% 30.09 in 10.0 mi ESE 4.6 mph - N/A   Scattered Clouds
11:51 PM 79.0 °F - 75.0 °F 88% 30.08 in 10.0 mi East 4.6 mph - N/A   Clear